Seldovia, AK

10:24 AM AKDT on October 20, 2017 (GMT -0800)
Seldovia

Weather History for PASO - December, 2012

Change the Weather History Date:

Wednesday, December 5, 2012

  Actual Average (PAHO) Record (PAHO)
Temperature  
Mean Temperature 14 °F -  
Max Temperature 18 °F 30 °F 48 °F (2002)
Min Temperature 10 °F 19 °F -10 °F (1975)
Degree Days  
Heating Degree Days 51    
Moisture  
Dew Point 7 °F    
Average Humidity 68    
Maximum Humidity 77    
Minimum Humidity 54    
Precipitation  
Precipitation 0.00 in - - ()
Sea Level Pressure  
Sea Level Pressure 29.49 in    
Wind  
Wind Speed 5 mph (North)    
Max Wind Speed 9 mph    
Max Gust Speed -    
Visibility 10 miles    
Events      
Averages and records for this station are not official NWS values.
T = Trace of Precipitation, MM = Missing Value Source: NWS Daily Summary

Daily Weather History Graph

Daily Weather History Graph

Search for Another Location

Airport or City:

Trip Planner

Search our weather history database for the weather conditions in past years. The results will help you decide how hot, cold, wet, or windy it might be!

Date:

Astronomy

Dec. 05, 2012 Rise Set
Actual Time 9:45 AM AKST 4:09 PM AKST
Civil Twilight 8:52 AM AKST 5:03 PM AKST
Nautical Twilight 7:57 AM AKST 5:57 PM AKST
Astronomical Twilight 7:07 AM AKST 6:47 PM AKST
Moon No Moon Rise 12:58 PM AKST (12/5)
Length of Visible Light 8h 11m
Length of Day
6h 23m
Waning Gibbous, 58% of the Moon is Illuminated
Dec 5
Waning Gibbous
Dec 6
Last Quarter
Dec 12
New
Dec 19
First Quarter
Dec 28
Full

Hourly Weather History & Observations

Time (AKST) Temp. Windchill Dew Point Humidity Pressure Visibility Wind Dir Wind Speed Gust Speed Precip Events Conditions
12:53 AM 12.9 °F 6.9 °F 3.0 °F 65% 29.44 in 10.0 mi Variable 3.5 mph - N/A   Clear
1:53 AM 12.9 °F 0.7 °F 1.0 °F 59% 29.44 in 10.0 mi NNW 9.2 mph - N/A   Clear
3:53 AM 15.1 °F 6.4 °F 1.0 °F 54% 29.46 in 10.0 mi Variable 5.8 mph - N/A   Clear
5:53 AM 16.0 °F 7.4 °F 3.9 °F 59% 29.46 in 10.0 mi Variable 5.8 mph - N/A   Clear
6:53 AM 16.0 °F - 5.0 °F 62% 29.46 in 10.0 mi Calm Calm - N/A   Clear
7:53 AM 12.0 °F 5.9 °F 6.1 °F 77% 29.46 in 10.0 mi North 3.5 mph - N/A   Clear
8:53 AM 16.0 °F 5.3 °F 6.1 °F 65% 29.47 in 10.0 mi North 8.1 mph - N/A   Clear
9:53 AM 10.9 °F - 3.0 °F 70% 29.49 in 10.0 mi Calm Calm - N/A   Clear
10:53 AM 16.0 °F 7.4 °F 8.1 °F 71% 29.50 in 10.0 mi North 5.8 mph - N/A   Clear
11:53 AM 15.1 °F - 6.1 °F 68% 29.50 in 10.0 mi Calm Calm - N/A   Clear
12:53 PM 18.0 °F 7.7 °F 8.1 °F 65% 29.50 in 10.0 mi North 8.1 mph - N/A   Clear
1:53 PM 18.0 °F 11.1 °F 9.0 °F 68% 29.50 in 10.0 mi North 4.6 mph - N/A   Clear
2:53 PM 16.0 °F - 8.1 °F 71% 29.50 in 10.0 mi Calm Calm - N/A   Clear
3:53 PM 17.1 °F 7.6 °F 9.0 °F 71% 29.49 in 10.0 mi North 6.9 mph - N/A   Clear
4:53 PM 15.1 °F - 9.0 °F 77% 29.49 in 10.0 mi Calm Calm - N/A   Clear
5:53 PM 16.0 °F 7.4 °F 9.0 °F 74% 29.50 in 10.0 mi North 5.8 mph - N/A   Clear
6:53 PM 16.0 °F 7.4 °F 10.0 °F 77% 29.51 in 10.0 mi NNW 5.8 mph - N/A   Clear
8:53 PM 16.0 °F - 8.1 °F 71% 29.52 in 10.0 mi Calm Calm - N/A   Clear
9:53 PM 16.0 °F 7.4 °F 9.0 °F 74% 29.53 in 10.0 mi North 5.8 mph - N/A   Clear
10:53 PM 17.1 °F 6.6 °F 9.0 °F 71% 29.54 in 10.0 mi NNE 8.1 mph - N/A   Scattered Clouds
11:53 PM 17.1 °F 7.6 °F 8.1 °F 68% 29.56 in 10.0 mi NNW 6.9 mph - N/A   Scattered Clouds